Anoka County, MN

5:24 PM CDT on May 24, 2018 (GMT -0500)
Anoka County / Blaine Airport

Weather History for KANE - December, 2013

Change the Weather History Date:

Tuesday, December 3, 2013

  Actual Average Record
Temperature  
Mean Temperature 34 °F -  
Max Temperature 35 °F 33 °F 60 °F (1998)
Min Temperature 33 °F 19 °F 0 °F (2007)
Degree Days  
Heating Degree Days 31    
Moisture  
Dew Point 35 °F    
Average Humidity 99    
Maximum Humidity 100    
Minimum Humidity 93    
Precipitation  
Precipitation 0.00 in - - ()
Sea Level Pressure  
Sea Level Pressure 29.67 in    
Wind  
Wind Speed 7 mph (East)    
Max Wind Speed 13 mph    
Max Gust Speed -    
Visibility 3 miles    
Events Rain , Snow    
Averages and records for this station are not official NWS values.
T = Trace of Precipitation, MM = Missing Value Source: NWS Daily Summary

Daily Weather History Graph

Daily Weather History Graph

Search for Another Location

Airport or City:

Astronomy

Dec. 03, 2013 Rise Set
Actual Time 7:33 AM CST 4:31 PM CST
Civil Twilight 7:00 AM CST 5:04 PM CST
Nautical Twilight 6:23 AM CST 5:41 PM CST
Astronomical Twilight 5:48 AM CST 6:17 PM CST
Moon 8:02 AM CST (12/3) 5:36 PM CST (12/3)
Length of Visible Light 10h 04m
Length of Day
8h 57m
New Moon, 1% of the Moon is Illuminated
Dec 3
New Moon
Dec 9
First Quarter
Dec 17
Full
Dec 25
Last Quarter
Jan 1
New

Hourly Weather History & Observations

Time (CST) Temp. Windchill Dew Point Humidity Pressure Visibility Wind Dir Wind Speed Gust Speed Precip Events Conditions
12:14 AM 35.6 °F 29.9 °F 35.6 °F 100% 29.59 in 3.0 mi ESE 6.9 mph - N/A   Overcast
12:34 AM 35.6 °F 29.9 °F 35.6 °F 100% 29.59 in 3.0 mi ESE 6.9 mph - N/A   Overcast
12:53 AM 35.6 °F 30.7 °F 35.6 °F 100% 29.58 in 3.0 mi ESE 5.8 mph - N/A   Overcast
1:14 AM 35.6 °F 29.9 °F 35.6 °F 100% 29.58 in 2.5 mi ESE 6.9 mph - N/A   Overcast
1:34 AM 35.6 °F 31.7 °F 35.6 °F 100% 29.59 in 2.5 mi East 4.6 mph - N/A   Overcast
1:54 AM 35.6 °F 31.7 °F 35.6 °F 100% 29.60 in 2.5 mi East 4.6 mph - N/A   Overcast
2:14 AM 35.6 °F 30.7 °F 35.6 °F 100% 29.60 in 2.0 mi ESE 5.8 mph - N/A   Overcast
2:34 AM 35.6 °F 30.7 °F 35.6 °F 100% 29.61 in 2.0 mi East 5.8 mph - N/A   Overcast
2:54 AM 35.6 °F 30.7 °F 35.6 °F 100% 29.61 in 1.8 mi East 5.8 mph - N/A   Overcast
3:14 AM 35.6 °F 30.7 °F 35.6 °F 100% 29.60 in 1.5 mi East 5.8 mph - N/A   Overcast
3:34 AM 35.6 °F 29.9 °F 35.6 °F 100% 29.60 in 1.2 mi ESE 6.9 mph - N/A   Overcast
3:54 AM 35.6 °F 31.7 °F 35.6 °F 100% 29.61 in 1.0 mi ESE 4.6 mph - N/A   Overcast
4:14 AM 35.6 °F 31.7 °F 35.6 °F 100% 29.61 in 0.8 mi ESE 4.6 mph - N/A   Overcast
4:34 AM 35.6 °F 29.9 °F 35.6 °F 100% 29.61 in 0.8 mi ESE 6.9 mph - N/A   Overcast
4:54 AM 35.6 °F 29.9 °F 35.6 °F 100% 29.61 in 0.8 mi ESE 6.9 mph - N/A   Overcast
5:13 AM 35.6 °F 30.7 °F 35.6 °F 100% 29.61 in 0.8 mi ESE 5.8 mph - N/A   Overcast
5:34 AM 35.6 °F 30.7 °F 35.6 °F 100% 29.62 in 0.8 mi ESE 5.8 mph - N/A   Overcast
5:54 AM 35.6 °F 31.7 °F 35.6 °F 100% 29.62 in 0.8 mi East 4.6 mph - N/A   Overcast
6:14 AM 35.6 °F 31.7 °F 35.6 °F 100% 29.62 in 0.8 mi ESE 4.6 mph - N/A   Overcast
6:34 AM 35.6 °F 32.8 °F 35.6 °F 100% 29.63 in 1.0 mi East 3.5 mph - N/A   Overcast
6:54 AM 35.6 °F 30.7 °F 35.6 °F 100% 29.63 in 0.8 mi ENE 5.8 mph - N/A   Overcast
7:45 AM 35.6 °F 30.7 °F 35.6 °F 100% 29.64 in 0.8 mi East 5.8 mph - N/A   Overcast
8:45 AM 35.6 °F 29.9 °F 35.6 °F 100% 29.65 in 0.5 mi East 6.9 mph - N/A   Overcast
9:45 AM 35.6 °F 29.9 °F 35.6 °F 100% 29.67 in 0.8 mi East 6.9 mph - N/A   Overcast
10:45 AM 35.6 °F 29.9 °F 35.6 °F 100% 29.69 in 0.8 mi East 6.9 mph - N/A   Overcast
11:45 AM 35.6 °F 29.9 °F 35.6 °F 100% 29.69 in 1.0 mi East 6.9 mph - N/A   Overcast
12:45 PM 35.6 °F 29.2 °F 35.6 °F 100% 29.68 in 1.2 mi East 8.1 mph - N/A   Mist
1:45 PM 35.6 °F 28.6 °F 35.6 °F 100% 29.68 in 3.0 mi ENE 9.2 mph - N/A Rain Light Rain
2:45 PM - - - N/A% 29.68 in 4.0 mi ENE 8.1 mph - N/A   Drizzle
3:45 PM 35.6 °F 28.6 °F 35.6 °F 100% 29.69 in 5.0 mi ENE 9.2 mph - N/A   Light Drizzle
4:45 PM 35.6 °F 28.6 °F 33.8 °F 93% 29.71 in 10.0 mi ENE 9.2 mph - N/A   Overcast
5:45 PM 35.6 °F 28.6 °F 33.8 °F 93% 29.73 in 10.0 mi ENE 9.2 mph - N/A   Overcast
6:45 PM 35.6 °F 28.6 °F 33.8 °F 93% 29.75 in 10.0 mi East 9.2 mph - N/A   Overcast
7:45 PM 33.8 °F 25.3 °F 33.8 °F 100% 29.76 in 10.0 mi ENE 11.5 mph - N/A   Overcast
8:45 PM 33.8 °F 25.3 °F 33.8 °F 100% 29.73 in 3.0 mi ENE 11.5 mph - N/A Snow Light Snow
9:13 PM 33.8 °F 27.0 °F 33.8 °F 100% 29.76 in 5.0 mi East 8.1 mph - N/A Snow Light Snow
9:34 PM 33.8 °F 25.8 °F 33.8 °F 100% 29.78 in 10.0 mi ENE 10.4 mph - N/A Snow Light Snow
9:54 PM 33.8 °F 25.8 °F 32.0 °F 93% 29.77 in 5.0 mi ENE 10.4 mph - N/A   Overcast
10:14 PM 33.8 °F 25.8 °F 33.8 °F 100% 29.77 in 3.0 mi ENE 10.4 mph - N/A   Overcast
10:34 PM 33.8 °F 26.4 °F 33.8 °F 100% 29.77 in 2.5 mi ENE 9.2 mph - N/A   Overcast
10:54 PM 33.8 °F 25.8 °F 33.8 °F 100% 29.78 in 3.0 mi NE 10.4 mph - N/A   Overcast
11:14 PM 33.8 °F 24.8 °F 32.0 °F 93% 29.77 in 5.0 mi ENE 12.7 mph - N/A   Overcast
11:34 PM 33.8 °F 26.4 °F 32.0 °F 93% 29.77 in 4.0 mi ENE 9.2 mph - N/A   Overcast
11:54 PM 33.8 °F 25.8 °F 32.0 °F 93% 29.77 in 5.0 mi NE 10.4 mph - N/A   Overcast